Погода в Хемнице

Германия     50˚50′07″N   13˚01′21″E
темп.,
°C
ветер,
м/с
пор.,
м/с
влажн.,
%
обл.,
%
осадки,
мм/ч
давл.,
гПа
погр.,
м
16 января, сб
сб1601:00−7˚сз2698100 1.6 1027257
04:00−7˚сз3797100 0.4 1026503
07:00−8˚з3696100 0.7 1027298
10:00−7˚з4794100 0.2 1026383
13:00−6˚з4788100 0.3 1025669
16:00−5˚зсз5994100 0.3 1023769
19:00−6˚зсз4896100 0.9 1022627
22:00−6˚зюз3795100 0.3 1022240
17 января, вс
вс1701:00−8˚зюз3694100 0.3 1020156
04:00−9˚ююз229299 0.0 101927
07:00−9˚ю129192 0.0 101921
10:00−6˚ююв1185100 0.0 101966
13:00−3˚ссз1175100 0.0 1019303
16:00−6˚св1190100 0.0 101921
19:00−8˚ю229055 0.0 102121
22:00−7˚ююз23912 0.0 102229
18 января, пн
пн1801:00−5˚ююз269635 0.0 1022155
04:00−2˚зюз31098100 0.9 1021378
07:00зсз51099100 3.1 1021633
10:00зсз51098100 2.0 1022648
13:00з51098100 2.9 1023731
16:00з51198100 0.7 1022807
19:00−1˚зюз61396100 1.3 1022797
22:00−1˚зюз61394100 0.6 1022721
19 января, вт
вт1901:00−1˚зюз61295100 1.9 1021778
04:00−1˚зюз61389100 0.1 1020638
07:00−2˚юз51388100 0.1 1019533
10:00юз61680100 0.0 1017794
13:00юз81893100 1.1 1013747
16:00+2˚зюз81886100 0.9 1012879
19:00+2˚зюз71789100 0.9 1012699
22:00+2˚юз71689100 0.0 1012564
20 января, ср
ср2001:00+3˚юз61883100 0.0 1011559
04:00+3˚юз61772100 0.0 1009499
07:00+3˚ююз61871100 0.0 1008611
10:00+3˚юз6187799 0.0 1008678
13:00+5˚юз6178499 0.0 1006594
16:00+3˚ююз41579100 0.0 1005510
19:00+4˚ю51763100 0.0 1004370
22:00+4˚ю41164100 0.0 1004224